Weather in Sysert

Russia / Sverdlovsk Oblast     56°30′08″N   60°48′36″E
temp.,
°C
wind,
m/s
gust,
m/s
humid.,
%
clouds,
%
prec.,
mm/h
press.,
hPa
HPBL,
m
4 march, thu
thu423:00−6sw3892100 0.1 999257
02:00−7sw2893100 0.0 997236
05:00−8sw3894100 0.0 997211
08:00−8sw31092100 0.0 997328
11:00−5w5985100 0.0 997824
14:00−5w5879100 0.1 9981222
17:00−6w4881100 0.2 9981055
20:00−10sw3109169 0.0 999262
5 march, fri
fri523:00−10ssw399259 0.0 998235
02:00−9s41093100 0.1 994533
05:00−6ssw51392100 1.0 9921020
08:00−6wsw5138866 0.1 993972
11:00−4wsw7148168 0.1 995957
14:00−3wsw7137932 0.0 9971019
17:00−4wsw6117831 0.0 9991070
20:00−8wsw3118933 0.0 1001394
6 march, sat
sat623:00−11w3109117 0.0 1004302
02:00−13w310930 0.0 1006313
05:00−15w411896 0.0 1008340
08:00−16w411900 0.0 1009303
11:00−10wsw511820 0.0 1009783
14:00−8w6117783 0.0 10091272
17:00−8w597992 0.1 10091329
20:00−13wsw369058 0.0 1010122
7 march, sun
sun723:00−15w239449 0.0 101065
02:00−18wnw119764 0.0 100920
05:00−20w119839 0.0 100920
08:00−18wsw119799 0.1 100920
11:00−11ssw1290100 0.3 1009299
14:00−8s1284100 0.3 1008618
17:00−8w4681100 1.0 1008991
20:00−14wsw389075 0.1 1010177
8 march, mon
mon823:00−17w399337 0.1 1013220
02:00−21wsw25950 0.0 101389
05:00−23sw22950 0.0 101323
08:00−21sse259459 0.0 1011125
11:00−15sse5118879 0.0 1009400
14:00−11s51090100 0.4 1006551
17:00−8s51090100 0.5 1003672
20:00−9sse389699 0.3 1002245